Window Rock, AZ

12:37 AM MDT on October 22, 2017 (GMT -0600)
Window Rock

Weather History for KRQE - August, 2013

Change the Weather History Date:

Wednesday, August 7, 2013

  Actual Average Record
Temperature  
Mean Temperature 60 °F -  
Max Temperature 66 °F 84 °F 93 °F (1981)
Min Temperature 54 °F 53 °F 43 °F (1976)
Degree Days  
Heating Degree Days 4    
Growing Degree Days 10 (Base 50)    
Moisture  
Dew Point 54 °F    
Average Humidity 81    
Maximum Humidity 97    
Minimum Humidity 57    
Precipitation  
Precipitation 0.35 in - - ()
Sea Level Pressure  
Sea Level Pressure 30.04 in    
Wind  
Wind Speed 2 mph (West)    
Max Wind Speed 12 mph    
Max Gust Speed 17 mph    
Visibility 9 miles    
Events Rain    
Averages and records for this station are not official NWS values.
T = Trace of Precipitation, MM = Missing Value Source: NWS Daily Summary

Daily Weather History Graph

Daily Weather History Graph

Search for Another Location

Airport or City:

Trip Planner

Search our weather history database for the weather conditions in past years. The results will help you decide how hot, cold, wet, or windy it might be!

Date:

Astronomy

Aug. 07, 2013 Rise Set
Actual Time 6:29 AM MDT 8:14 PM MDT
Civil Twilight 6:01 AM MDT 8:41 PM MDT
Nautical Twilight 5:28 AM MDT 9:14 PM MDT
Astronomical Twilight 4:52 AM MDT 9:50 PM MDT
Moon 7:17 AM MDT (8/7) 8:28 PM MDT (8/7)
Length of Visible Light 14h 40m
Length of Day
13h 44m
New Moon, 1% of the Moon is Illuminated
Aug 7
New Moon
Aug 14
First Quarter
Aug 20
Full
Aug 28
Last Quarter
Sep 5
New

Hourly Weather History & Observations

Time (MDT) Temp. Dew Point Humidity Pressure Visibility Wind Dir Wind Speed Gust Speed Precip Events Conditions
12:04 AM 59.0 °F 57.2 °F 94% 30.27 in 10.0 mi Calm Calm - N/A   Overcast
12:12 AM 59.0 °F 57.2 °F 94% 30.27 in 10.0 mi Calm Calm - N/A   Overcast
12:37 AM 59.0 °F 57.2 °F 94% 30.26 in 10.0 mi Calm Calm - N/A   Overcast
12:53 AM 57.9 °F 57.0 °F 97% 29.94 in 10.0 mi SSW 3.5 mph - N/A   Overcast
1:53 AM 57.9 °F 55.9 °F 93% 29.92 in 10.0 mi Calm Calm - N/A   Overcast
2:53 AM 57.9 °F 57.0 °F 97% 29.89 in 10.0 mi Calm Calm - 0.00 in Rain Light Rain
3:53 AM 57.9 °F 57.0 °F 97% 29.90 in 10.0 mi Calm Calm - 0.00 in   Overcast
4:53 AM 57.9 °F 55.0 °F 90% 29.94 in 10.0 mi Calm Calm - 0.01 in Rain Light Rain
5:37 AM 57.2 °F 55.4 °F 94% 30.23 in 1.5 mi Calm Calm - 0.02 in Rain Heavy Rain
5:53 AM 57.0 °F 55.0 °F 93% 29.94 in 3.0 mi Calm Calm - 0.23 in Rain Light Rain
7:12 AM 57.2 °F 55.4 °F 94% 30.25 in 10.0 mi North 4.6 mph - 0.00 in Rain Light Rain
7:53 AM 57.0 °F 55.0 °F 93% 29.99 in 10.0 mi North 4.6 mph - 0.00 in   Overcast
8:53 AM 59.0 °F 55.0 °F 87% 30.00 in 10.0 mi NNW 5.8 mph - N/A   Overcast
9:53 AM 62.1 °F 53.1 °F 72% 29.99 in 10.0 mi Calm Calm - N/A   Overcast
10:53 AM 63.0 °F 52.0 °F 67% 29.98 in 10.0 mi Variable 3.5 mph - N/A   Mostly Cloudy
11:28 AM 64.4 °F 53.6 °F 68% 30.27 in 10.0 mi Calm Calm - 0.00 in   Overcast
11:37 AM 62.6 °F 53.6 °F 72% 30.27 in 6.0 mi SW 11.5 mph 17.3 mph 0.00 in Rain Light Rain
11:41 AM 59.0 °F 55.4 °F 88% 30.27 in 1.8 mi South 11.5 mph 17.3 mph 0.01 in Rain Heavy Rain
11:53 AM 57.9 °F 54.0 °F 87% 30.00 in 2.0 mi Calm Calm - 0.11 in Rain Rain
12:03 PM 60.8 °F 55.4 °F 82% 30.26 in 10.0 mi Calm Calm - 0.00 in   Overcast
12:53 PM 64.0 °F 54.0 °F 70% 29.96 in 10.0 mi SW 11.5 mph - 0.00 in   Overcast
1:53 PM 64.0 °F 54.0 °F 70% 29.96 in 10.0 mi West 6.9 mph - N/A   Overcast
2:53 PM 66.0 °F 52.0 °F 60% 29.94 in 10.0 mi West 9.2 mph - N/A   Overcast
3:53 PM 66.9 °F 51.1 °F 57% 29.92 in 10.0 mi WNW 10.4 mph - N/A   Overcast
4:53 PM 66.9 °F 52.0 °F 59% 29.91 in 10.0 mi WNW 8.1 mph - N/A   Overcast
5:53 PM 64.9 °F 51.1 °F 61% 29.91 in 10.0 mi West 6.9 mph - N/A   Overcast
6:53 PM 64.9 °F 51.1 °F 61% 29.92 in 10.0 mi NNW 9.2 mph - N/A   Overcast
7:53 PM 63.0 °F 51.1 °F 65% 29.94 in 10.0 mi WNW 3.5 mph - N/A   Clear
8:53 PM 60.1 °F 51.1 °F 72% 29.96 in 10.0 mi Calm Calm - N/A   Partly Cloudy
9:53 PM 57.0 °F 51.1 °F 81% 29.96 in 10.0 mi SSW 3.5 mph - N/A   Mostly Cloudy
10:53 PM 55.0 °F 51.1 °F 86% 29.97 in 10.0 mi Calm Calm - N/A   Clear
11:53 PM 54.0 °F 50.0 °F 86% 30.01 in 10.0 mi Calm Calm - N/A   Clear